Accueil
METAR-TAF:

METAR-TAF

Aéroports :

Melun, France

Aérodrome de Melun-Villaroche

latitude: 48-37N, longitude: 002-41E, altitude: 95 m

Observation

Le bulletin a été fait il y a 37 minutes, à 18:00 UTC
Vent 5 kt de est
Température 17°C
Humidité 82%
Pression 1016 hPa
Visibilité 10 km ou plus
pas de nuages en-dessous de 1500 mètres et pas de cumulonimbus.

METAR: LFPM 171800Z AUTO 09005KT CAVOK 17/14 Q1016

Heure: 20:37 (18:37 UTC)


TAF: absent

Observations et prévisions météorologiques de plus de 4000 aéroports (messages METAR et TAF).

Les stations disponibles sont représentées par des disques jaunes et rouges sur la carte.

Passer la souris dessus pour voir le nom de la station.

Cliquer dessus pour voir les observations et prévisions météorologiques.

Pour changer de carte: cliquez sur les boutons verts avec une croix noire pour zoomer, sur le bouton vert avec un tiret pour effectuer un zoom arrière, ou sur les flèches vertes pour les cartes adjacentes.


METAR-TAF: